Regional Weather Roundup
Issued by NWS Wakefield, VA

Home | Current Version | Previous Version | Graphics & Text | Print | Product List | Glossary On
Versions: 1 2 3 4 5 6 7 8 9 10 11 12 13 14 15 16 17 18 19 20 21 22 23 24 25 26 27
000
ASUS41 KAKQ 230215
RWRAKQ

REGIONAL WEATHER ROUNDUP
NATIONAL WEATHER SERVICE WAKEFIELD VA
900 PM EST THU FEB 22 2018

Note: "fair" indicates few or no clouds below 12,000 feet with no
significant weather and/or obstructions to visibility. * = Denotes
station may not report precipitation (e.g., rain,snow,etc.),
thunder or fog.

VAZ042-051-052>054-056-230300-
NORTHERN VIRGINIA

CITY           SKY/WX    TMP DP  RH WIND       PRES   REMARKS
WASH NATIONAL  CLOUDY    45  41  86 E10       30.58R
DULLES         CLOUDY    44  43  96 E12       30.57R
FORT BELVOIR   CLOUDY    44  40  85 E5        30.57S
QUANTICO       DRIZZLE   47  45  93 E15       30.58R
FREDERICKSBRG* DRIZZLE   47  47 100 E8        30.55S
STAFFORD*      CLOUDY    47  47 100 NE7       30.59S
WARRENTON      CLOUDY    46  42  86 N5        30.55S
CULPEPER*      CLOUDY    46  43  90 N7        30.57R
MANASSAS*      CLOUDY    45  42  89 E9        30.57R
LEESBURG*      CLOUDY    39  39 100 NE6       30.58S
WINCHESTER     CLOUDY    39  37  93 NE5       30.58R
FRONT ROYAL*   CLOUDY    41  41 100 CALM      30.56R
LURAY*         CLOUDY    41  41 100 NE8       30.55R
$$

VAZ048-049-060>072-079>083-230300-
CENTRAL AND SOUTH CENTRAL VIRGINIA

CITY           SKY/WX    TMP DP  RH WIND       PRES   REMARKS
RICHMOND       CLOUDY    49  46  90 NE14G20   30.52S
CHESTERFIELD*  CLOUDY    50  46  86 NE10G16   30.52R
PETERSBURG*    CLOUDY    51  47  87 NE13      30.52R
HANOVER        CLOUDY    48  45  89 VRB5      30.54R
TAPPAHANNOCK*  CLOUDY    47  45  93 NE8G17    30.55S
QUINTON*       CLOUDY    47  47 100 NE8       30.53R
CHARLOTTSVILLE CLOUDY    47  43  86 NE8       30.54R
GORDONSVILLE*  CLOUDY    45  45 100 N6        30.54R
ORANGE*        CLOUDY    43  43 100 CALM      30.55R
LOUISA*        LGT RAIN  45  44  97 N7        30.58S
BUMPASS*       CLOUDY    47  46  96 N5        30.53S
FARMVILLE*     CLOUDY    53  53 100 NE10      30.50R
CREWE*         CLOUDY    52  52 100 N3        30.49R
FORT PICKETT*  CLOUDY    53  53 100 NE10      30.49R
CHASE CITY*    CLOUDY    59  59 100 NE9       30.45R
CLARKSVILLE*   CLOUDY    68  63  83 NE3       30.43R
SOUTH HILL*    CLOUDY    62  59  90 N12       30.51R
LAWRENCEVILLE* CLOUDY    57  54  88 N6G16     30.47R
EMPORIA*         N/A     57  54  88 N12G20    30.49R
$$

VAZ088>098-230300-
SOUTHEAST VIRGINIA

CITY           SKY/WX    TMP DP  RH WIND       PRES   REMARKS
NORFOLK        CLOUDY    48  47  96 NE14      30.51R FOG
VIRGINIA BEACH FOG       45  43  93 NE18G28   30.51R VSB 1/2
NORFOLK NAVAL  FOG       47  46  97 NE14      30.53R VSB 1/2
WEST POINT*    CLOUDY    46  44  90 NE10G16   30.55S
SALUDA*        CLOUDY    45  45 100 NE9       30.54R
NEWPORT NEWS   CLOUDY    48  45  89 NE10G18   30.53R
LANGLEY AFB    CLOUDY    47  47  99 N15       30.52R FOG
FORT EUSTIS    CLOUDY    49  46  90 NE9       30.51R
WILLIAMSBURG*  CLOUDY    52  46  82 NE5G17    30.53R
HR EXEC AP*    CLOUDY    49  48  97 NE10G17   30.52R FOG
FRANKLIN*      CLOUDY    53  51  92 NE14      30.49R
US460-WAKEFLD  CLOUDY    52  50  93 VRB5      30.51R
$$

VAZ020-022-025-037-045-230300-
WEST CENTRAL AND SOUTHWEST VIRGINIA

CITY           SKY/WX    TMP DP  RH WIND       PRES   REMARKS
STAUNTON*      CLOUDY    43  40  89 NE3       30.55R
WAYNESBORO*    CLOUDY    44  42  93 CALM      30.53R
HOT SPRINGS VA MOCLDY    57  53  88 SE5       30.48S
LYNCHBURG      CLOUDY    52  47  83 NE14      30.47R
DANVILLE       FAIR      62  60  93 NE5       30.41R
SOUTH BOSTON*  CLOUDY    62  54  73 NE8G16    30.44R
MARTINSVILLE   FAIR      66  59  77 S3        30.43R
ROANOKE        CLOUDY    65  54  67 CALM      30.45R
BLACKSBURG     FAIR      63  56  78 E6        30.46S
DUBLIN*        CLOUDY    65  57  76 E3        30.44S
MARION*        FAIR      64  53  68 CALM      30.44S
HILLSVILLE*    FAIR      63  60  88 S7        30.44S
RICHLANDS*     FAIR      63  55  77 CALM      30.41F
WISE*          FAIR      59  59 100 CALM      30.42S
ABINGDON*      FAIR      64  56  73 CALM      30.39S
$$

MDZ021>025-VAZ099-100-230300-
SOUTHERN MARYLAND AND THE DELMARVA PENINSULA

CITY           SKY/WX    TMP DP  RH WIND       PRES   REMARKS
PATUXENT RIVER LGT RAIN  44  43  96 E10       30.55R FOG
BAY BRIDGE APT CLOUDY    41  39  93 E10       30.59R
LEONARDTOWN    CLOUDY    43  41  93 NE5       30.57R
DOVER          CLOUDY    40  38  92 NE14      30.58R
GEORGETOWN     LGT RAIN  41  38  89 NE15G23   30.57S
EASTON         CLOUDY    41  39  93 E14G22    30.62R
CAMBRIDGE      CLOUDY    43  41  93 E8G17     30.56R
SALISBURY      CLOUDY    41  40  96 E15       30.55S
OCEAN CITY     CLOUDY    42  41  96 NE17G24   30.55F
WALLOPS ISLAND CLOUDY    45  42  89 NE25G35   30.54R
ACCOMACK*      CLOUDY    45  43  94 NE13      30.52S
$$

NCZ012>017-030>032-230300-
NORTH CENTRAL AND EASTERN NORTH CAROLINA

CITY           SKY/WX    TMP DP  RH WIND       PRES   REMARKS
ROANOKE RAPIDS MOCLDY    61  61 100 CALM      30.44R
RALEIGH        FAIR      67  60  78 S6        30.41R
ELIZABETH CITY FAIR      62  61  96 CALM      30.45R
AHOSKIE*       FAIR      59  58  98 CALM      30.45R
EDENTON*       FAIR      64  61  89 CALM      30.45R
CURRITUCK*     FOG       49  47  95 N15G23    30.49R VSB 1
KILL DEVIL HLS FAIR      63  63 100 CALM      30.44R
MANTEO         FAIR      62  59  91 SW3       30.46R
CAPE HATTERAS  FAIR      65  64  97 S6        30.45R
TARBORO*       NOT AVBL
GOLDSBORO      FAIR      66  61  84 SE5       30.41R
WASHINGTON     FAIR      68  61  79 CALM      30.44R
GREENVILLE     FAIR      64  61  88 S5        30.42S
NEW BERN       FAIR      63  58  83 SW7       30.45R
WILMINGTON     FAIR      65  62  90 S5        30.45R
$$

VAZ048-230300-
ELSEWHERE

CITY           SKY/WX    TMP DP  RH WIND       PRES   REMARKS
HARRISBURG PA  CLOUDY    40  36  86 NE7       30.61R
BALTIMORE      CLOUDY    42  40  92 E15       30.58R
ANNAPOLIS      CLOUDY    44  40  85 E12       30.59R
ANDREWS AFB    CLOUDY    42  39  90 NE10      30.56R
PHILADELPHIA   CLOUDY    40  36  86 E13       30.62R
HENDERSON NC   MOCLDY    59  57  93 CALM      30.42R
GREENSBORO     FAIR      67  62  84 S6        30.40R
ROCKY MOUNT    FAIR      61  59  93 CALM      30.42R
$$

VAZ100-230300-
MARINE

STATION/POSITION TIME  TEMP    WIND        PRES    WAVE   SWELL
                       AIR SEA DIR/SP/G            HT/PER HT/PER
                 (UTC) (F)     (DEG/KT/KT) (MB)    (FT/S) (FT/S)
BRANDYWINE LGT   0142   40      70/ 24/ 30 1035.0F
CAPE MAY NJ      0136   39 43   70/ 17/ 28 1034.3F
LEWES DE         0142   40 45   80/ 20/ 24 1035.0F
15NM E FENWICK I 0150   42 43   30/ 25/ 33 1033.5S   9/ 7   2/15
OCEAN-CITY-INLET 0142   42 47   60/  8/ 16 1035.1F
WACHAPREAGUE VA  0142   44 58   40/ 28/ 33 1033.3R
THOMAS POINT MD  0200   42 42   80/ 11/ 13   N/A
GOOSES REEF MD   0200   43 42  100/ 14/ 16 1032.1    2/ 3
COVE POINT MD    0142   42      70/  9/ 12 1035.4R
SOLOMONS ISLAND  0142   43 44   50/  6/ 10 1034.5R
BISHOPS HEAD MD  0142   44 50   70/ 15/ 20 1034.4F
PINEY POINT MD   0148           90/  6/  9   N/A
POTOMAC MD       0200   42 41  240/ 14/ 17 1033.6    1/ 2
CAMBRIDGE MD     0142   43 48              1035.8R
LEWISETTA VA     0142   44 49   90/ 14/ 17 1034.3S
RAPPAHANNOCK LGT 0142           30/ 17/ 18 1034.3R
YORK RVR RNG VA  0142           30/ 18/ 20 1034.0R
YORKTOWN VA      0142      52   30/ 14/ 19 1033.4R
DOMINION TERM VA 0142   48      40/  8/ 15 1033.6R
KIPTOPEKE VA     0142      46   50/ 13/ 20   N/A
CAPE HENRY VA    0142           30/ 23/ 28   N/A
WILLOUBY STN VA  0142           20/ 15/ 17 1033.4R
S CRANEY ISL VA  0142           30/ 15/ 19 1033.1R
CAPE HENRY BUOY  0200      44                N/A     5/ 4   2/13
CAPE CHARLES BUO 0151      44                N/A     5/ 4   2/13
64NM E OF VA BCH 0150   58 51  270/ 12/ 19 1031.5R   4/15   3/15
DUCK PIER NC     0142   66 45  210/  5/  5 1030.5R
44100 DUCK FRF   0145      49                N/A     3/13   2/13
44056 DUCK FRF   0200      49                N/A     2/14   2/14
OREGON INLET NC  0142   63 66  210/  8/  9 1031.0R
HATTERAS NC      0142   65 62  190/  4/  6 1031.0R
DIAMOND SHLS NC  0150   73 76  200/ 14/ 16 1031.5R   3/14   3/14
CAPE LOOKOUT NC  0200          180/  6/  6 1031.5R
$$




USA.gov is the U.S. government's official web portal to all federal, state and local government web resources and services.